Wetterdaten: Dienstag, 21.07.2015
Datum Zeit Temp. A. Feuchte A. Luftdruck Regen Wind Richtung Richtung Sonnenschein ET UV Solar Taupunkt Windchill Windben Empfang
21.07.2015 00:00 19,2 C 83 % 1013,1 hPa 0,0 l/m 0,0 km/h (0 Bft) NO 45 0 min 0,000 mm 0,0 UV-I 0 W/m 16,2 C 19,2 C 0,0 km/h (0 Bft) 0,00 %
21.07.2015 00:05 19,1 C 83 % 1013,3 hPa 0,0 l/m 0,0 km/h (0 Bft) NO 45 0 min 0,000 mm 0,0 UV-I 0 W/m 16,1 C 19,1 C 0,0 km/h (0 Bft) 0,00 %
21.07.2015 00:10 19,0 C 84 % 1013,3 hPa 0,0 l/m 0,0 km/h (0 Bft) NO 39 0 min 0,000 mm 0,0 UV-I 0 W/m 16,2 C 19,0 C 0,0 km/h (0 Bft) 0,00 %
21.07.2015 00:15 18,9 C 84 % 1013,2 hPa 0,0 l/m 0,0 km/h (0 Bft) NO 41 0 min 0,000 mm 0,0 UV-I 0 W/m 16,1 C 18,9 C 0,0 km/h (0 Bft) 0,00 %
21.07.2015 00:20 18,9 C 85 % 1013,4 hPa 0,0 l/m 0,0 km/h (0 Bft) NO 41 0 min 0,000 mm 0,0 UV-I 0 W/m 16,3 C 18,9 C 0,0 km/h (0 Bft) 0,00 %
21.07.2015 00:25 18,8 C 86 % 1013,3 hPa 0,0 l/m 0,0 km/h (0 Bft) NO 45 0 min 0,000 mm 0,0 UV-I 0 W/m 16,4 C 18,8 C 0,0 km/h (0 Bft) 0,00 %
21.07.2015 00:30 18,8 C 86 % 1013,3 hPa 0,0 l/m 0,0 km/h (0 Bft) NO 45 0 min 0,000 mm 0,0 UV-I 0 W/m 16,4 C 18,8 C 0,0 km/h (0 Bft) 0,00 %
21.07.2015 00:35 18,8 C 86 % 1013,4 hPa 0,0 l/m 0,0 km/h (0 Bft) NO 45 0 min 0,000 mm 0,0 UV-I 0 W/m 16,4 C 18,8 C 0,0 km/h (0 Bft) 0,00 %
21.07.2015 00:40 18,7 C 86 % 1013,3 hPa 0,0 l/m 0,0 km/h (0 Bft) NO 42 0 min 0,000 mm 0,0 UV-I 0 W/m 16,3 C 18,7 C 0,0 km/h (0 Bft) 0,00 %
21.07.2015 00:45 18,7 C 87 % 1013,5 hPa 0,0 l/m 0,0 km/h (0 Bft) NO 44 0 min 0,000 mm 0,0 UV-I 0 W/m 16,5 C 18,7 C 0,0 km/h (0 Bft) 0,00 %
21.07.2015 00:50 18,7 C 87 % 1013,3 hPa 0,0 l/m 0,0 km/h (0 Bft) NO 44 0 min 0,000 mm 0,0 UV-I 0 W/m 16,5 C 18,7 C 0,0 km/h (0 Bft) 0,00 %
21.07.2015 00:55 18,8 C 87 % 1013,4 hPa 0,0 l/m 0,0 km/h (0 Bft) NO 38 0 min 0,000 mm 0,0 UV-I 0 W/m 16,6 C 18,8 C 0,0 km/h (0 Bft) 0,00 %
21.07.2015 01:00 18,9 C 87 % 1013,6 hPa 0,0 l/m 0,0 km/h (0 Bft) NO 41 0 min 0,000 mm 0,0 UV-I 0 W/m 16,7 C 18,9 C 0,0 km/h (0 Bft) 0,00 %
21.07.2015 01:05 18,9 C 87 % 1013,3 hPa 0,0 l/m 0,0 km/h (0 Bft) NO 39 0 min 0,000 mm 0,0 UV-I 0 W/m 16,7 C 18,9 C 0,0 km/h (0 Bft) 0,00 %
21.07.2015 01:10 18,9 C 87 % 1013,4 hPa 0,0 l/m 0,0 km/h (0 Bft) NO 54 0 min 0,000 mm 0,0 UV-I 0 W/m 16,7 C 18,9 C 0,0 km/h (0 Bft) 0,00 %
21.07.2015 01:15 18,9 C 87 % 1013,3 hPa 0,0 l/m 0,0 km/h (0 Bft) NO 41 0 min 0,000 mm 0,0 UV-I 0 W/m 16,7 C 18,9 C 0,0 km/h (0 Bft) 0,00 %
21.07.2015 01:20 18,9 C 87 % 1013,4 hPa 0,0 l/m 0,0 km/h (0 Bft) NO 40 0 min 0,000 mm 0,0 UV-I 0 W/m 16,7 C 18,9 C 0,0 km/h (0 Bft) 0,00 %
21.07.2015 01:25 18,8 C 87 % 1013,6 hPa 0,0 l/m 0,0 km/h (0 Bft) NO 54 0 min 0,000 mm 0,0 UV-I 0 W/m 16,6 C 18,8 C 0,0 km/h (0 Bft) 0,00 %
21.07.2015 01:30 18,8 C 87 % 1013,4 hPa 0,0 l/m 0,0 km/h (0 Bft) NO 39 0 min 0,000 mm 0,0 UV-I 0 W/m 16,6 C 18,8 C 0,0 km/h (0 Bft) 0,00 %
21.07.2015 01:35 18,8 C 87 % 1013,4 hPa 0,0 l/m 0,0 km/h (0 Bft) NO 40 0 min 0,000 mm 0,0 UV-I 0 W/m 16,6 C 18,8 C 0,0 km/h (0 Bft) 0,00 %
21.07.2015 01:40 18,7 C 87 % 1013,5 hPa 0,0 l/m 0,0 km/h (0 Bft) NO 45 0 min 0,000 mm 0,0 UV-I 0 W/m 16,5 C 18,7 C 0,0 km/h (0 Bft) 0,00 %
21.07.2015 01:45 18,7 C 87 % 1013,5 hPa 0,0 l/m 0,0 km/h (0 Bft) NO 45 0 min 0,000 mm 0,0 UV-I 0 W/m 16,5 C 18,7 C 0,0 km/h (0 Bft) 0,00 %
21.07.2015 01:50 18,6 C 87 % 1013,3 hPa 0,0 l/m 0,0 km/h (0 Bft) NO 39 0 min 0,000 mm 0,0 UV-I 0 W/m 16,4 C 18,6 C 0,0 km/h (0 Bft) 0,00 %
21.07.2015 01:55 18,6 C 87 % 1013,3 hPa 0,0 l/m 0,0 km/h (0 Bft) NO 39 0 min 0,000 mm 0,0 UV-I 0 W/m 16,4 C 18,6 C 0,0 km/h (0 Bft) 0,00 %
21.07.2015 02:00 18,6 C 87 % 1013,3 hPa 0,0 l/m 0,0 km/h (0 Bft) NO 39 0 min 0,000 mm 0,0 UV-I 0 W/m 16,4 C 18,6 C 0,0 km/h (0 Bft) 0,00 %
21.07.2015 02:05 18,6 C 87 % 1013,4 hPa 0,0 l/m 0,0 km/h (0 Bft) NO 42 0 min 0,000 mm 0,0 UV-I 0 W/m 16,4 C 18,6 C 0,0 km/h (0 Bft) 0,00 %
21.07.2015 02:10 18,5 C 87 % 1013,5 hPa 0,0 l/m 0,0 km/h (0 Bft) N-NW 347 0 min 0,000 mm 0,0 UV-I 0 W/m 16,3 C 18,5 C 0,0 km/h (0 Bft) 0,00 %
21.07.2015 02:15 18,5 C 87 % 1013,5 hPa 0,0 l/m 0,0 km/h (0 Bft) NO 41 0 min 0,000 mm 0,0 UV-I 0 W/m 16,3 C 18,5 C 0,0 km/h (0 Bft) 0,00 %
21.07.2015 02:20 18,5 C 87 % 1013,5 hPa 0,0 l/m 0,0 km/h (0 Bft) N-NO 29 0 min 0,000 mm 0,0 UV-I 0 W/m 16,3 C 18,5 C 0,0 km/h (0 Bft) 0,00 %
21.07.2015 02:25 18,4 C 87 % 1013,6 hPa 0,0 l/m 0,0 km/h (0 Bft) NO 40 0 min 0,000 mm 0,0 UV-I 0 W/m 16,2 C 18,4 C 0,0 km/h (0 Bft) 0,00 %
21.07.2015 02:30 18,4 C 87 % 1013,5 hPa 0,0 l/m 0,0 km/h (0 Bft) NO 40 0 min 0,000 mm 0,0 UV-I 0 W/m 16,2 C 18,4 C 0,0 km/h (0 Bft) 0,00 %
21.07.2015 02:35 18,4 C 87 % 1013,5 hPa 0,0 l/m 0,0 km/h (0 Bft) NO 40 0 min 0,000 mm 0,0 UV-I 0 W/m 16,2 C 18,4 C 0,0 km/h (0 Bft) 0,00 %
21.07.2015 02:40 18,3 C 88 % 1013,7 hPa 0,0 l/m 0,0 km/h (0 Bft) NO 40 0 min 0,000 mm 0,0 UV-I 0 W/m 16,3 C 18,3 C 0,0 km/h (0 Bft) 0,00 %
21.07.2015 02:45 18,2 C 88 % 1013,6 hPa 0,0 l/m 0,0 km/h (0 Bft) N-NO 17 0 min 0,000 mm 0,0 UV-I 0 W/m 16,2 C 18,2 C 0,0 km/h (0 Bft) 0,00 %
21.07.2015 02:50 18,1 C 89 % 1013,6 hPa 0,0 l/m 0,0 km/h (0 Bft) NO 35 0 min 0,000 mm 0,0 UV-I 0 W/m 16,3 C 18,1 C 0,0 km/h (0 Bft) 0,00 %
21.07.2015 02:55 17,9 C 90 % 1013,5 hPa 0,0 l/m 0,0 km/h (0 Bft) NO 35 0 min 0,000 mm 0,0 UV-I 0 W/m 16,2 C 17,9 C 0,0 km/h (0 Bft) 0,00 %
21.07.2015 03:00 17,7 C 90 % 1013,6 hPa 0,0 l/m 0,0 km/h (0 Bft) NO 36 0 min 0,000 mm 0,0 UV-I 0 W/m 16,0 C 17,7 C 0,0 km/h (0 Bft) 0,00 %
21.07.2015 03:05 17,6 C 91 % 1013,7 hPa 0,0 l/m 0,0 km/h (0 Bft) O-NO 67 0 min 0,000 mm 0,0 UV-I 0 W/m 16,1 C 17,6 C 0,0 km/h (0 Bft) 0,00 %
21.07.2015 03:10 17,5 C 92 % 1013,8 hPa 0,0 l/m 0,0 km/h (0 Bft) O-NO 67 0 min 0,000 mm 0,0 UV-I 0 W/m 16,2 C 17,5 C 0,0 km/h (0 Bft) 0,00 %
21.07.2015 03:15 17,4 C 92 % 1013,8 hPa 0,0 l/m 0,0 km/h (0 Bft) O-NO 67 0 min 0,000 mm 0,0 UV-I 0 W/m 16,1 C 17,4 C 0,0 km/h (0 Bft) 0,00 %
21.07.2015 03:20 17,3 C 92 % 1013,8 hPa 0,0 l/m 0,0 km/h (0 Bft) O-NO 67 0 min 0,000 mm 0,0 UV-I 0 W/m 16,0 C 17,3 C 0,0 km/h (0 Bft) 0,00 %
21.07.2015 03:25 17,2 C 92 % 1013,9 hPa 0,0 l/m 0,0 km/h (0 Bft) O-NO 67 0 min 0,000 mm 0,0 UV-I 0 W/m 15,9 C 17,2 C 0,0 km/h (0 Bft) 0,00 %
21.07.2015 03:30 17,2 C 92 % 1013,8 hPa 0,0 l/m 0,0 km/h (0 Bft) O-NO 73 0 min 0,000 mm 0,0 UV-I 0 W/m 15,9 C 17,2 C 0,0 km/h (0 Bft) 0,00 %
21.07.2015 03:35 17,1 C 93 % 1014,0 hPa 0,0 l/m 0,0 km/h (0 Bft) O-NO 60 0 min 0,000 mm 0,0 UV-I 0 W/m 16,0 C 17,1 C 0,0 km/h (0 Bft) 0,00 %
21.07.2015 03:40 17,1 C 93 % 1013,9 hPa 0,0 l/m 0,0 km/h (0 Bft) NO 43 0 min 0,000 mm 0,0 UV-I 0 W/m 16,0 C 17,1 C 0,0 km/h (0 Bft) 0,00 %
21.07.2015 03:45 17,0 C 93 % 1014,0 hPa 0,0 l/m 0,0 km/h (0 Bft) NO 43 0 min 0,000 mm 0,0 UV-I 0 W/m 15,9 C 17,0 C 0,0 km/h (0 Bft) 0,00 %
21.07.2015 03:50 17,0 C 91 % 1013,9 hPa 0,0 l/m 0,0 km/h (0 Bft) NO 43 0 min 0,000 mm 0,0 UV-I 0 W/m 15,5 C 17,0 C 0,0 km/h (0 Bft) 0,00 %
21.07.2015 03:55 17,0 C 91 % 1013,9 hPa 0,0 l/m 0,0 km/h (0 Bft) NO 43 0 min 0,000 mm 0,0 UV-I 0 W/m 15,5 C 17,0 C 0,0 km/h (0 Bft) 0,00 %
21.07.2015 04:00 16,9 C 91 % 1013,8 hPa 0,0 l/m 0,0 km/h (0 Bft) O-NO 71 0 min 0,000 mm 0,0 UV-I 0 W/m 15,4 C 16,9 C 0,0 km/h (0 Bft) 0,00 %
21.07.2015 04:05 16,8 C 92 % 1013,9 hPa 0,0 l/m 0,0 km/h (0 Bft) O-NO 58 0 min 0,000 mm 0,0 UV-I 0 W/m 15,5 C 16,8 C 0,0 km/h (0 Bft) 0,00 %
21.07.2015 04:10 16,8 C 92 % 1013,8 hPa 0,0 l/m 0,0 km/h (0 Bft) O-NO 66 0 min 0,000 mm 0,0 UV-I 0 W/m 15,5 C 16,8 C 0,0 km/h (0 Bft) 0,00 %
21.07.2015 04:15 16,7 C 92 % 1013,8 hPa 0,0 l/m 0,0 km/h (0 Bft) O-NO 70 0 min 0,000 mm 0,0 UV-I 0 W/m 15,4 C 16,7 C 0,0 km/h (0 Bft) 0,00 %
21.07.2015 04:20 16,7 C 92 % 1013,7 hPa 0,0 l/m 0,0 km/h (0 Bft) NO 48 0 min 0,000 mm 0,0 UV-I 0 W/m 15,4 C 16,7 C 0,0 km/h (0 Bft) 0,00 %
21.07.2015 04:25 16,8 C 92 % 1013,7 hPa 0,0 l/m 0,0 km/h (0 Bft) NO 48 0 min 0,000 mm 0,0 UV-I 0 W/m 15,5 C 16,8 C 0,0 km/h (0 Bft) 0,00 %
21.07.2015 04:30 16,7 C 92 % 1013,8 hPa 0,0 l/m 0,0 km/h (0 Bft) N-NO 13 0 min 0,000 mm 0,0 UV-I 0 W/m 15,4 C 16,7 C 0,0 km/h (0 Bft) 0,00 %
21.07.2015 04:35 16,7 C 92 % 1014,0 hPa 0,0 l/m 0,0 km/h (0 Bft) N-NO 25 0 min 0,000 mm 0,0 UV-I 0 W/m 15,4 C 16,7 C 0,0 km/h (0 Bft) 0,00 %
21.07.2015 04:40 16,6 C 92 % 1014,0 hPa 0,0 l/m 0,0 km/h (0 Bft) N-NO 27 0 min 0,000 mm 0,0 UV-I 0 W/m 15,3 C 16,6 C 0,0 km/h (0 Bft) 0,00 %
21.07.2015 04:45 16,5 C 91 % 1014,0 hPa 0,0 l/m 0,0 km/h (0 Bft) N-NO 27 0 min 0,000 mm 0,0 UV-I 0 W/m 15,0 C 16,5 C 0,0 km/h (0 Bft) 0,00 %
21.07.2015 04:50 16,4 C 92 % 1014,0 hPa 0,0 l/m 0,0 km/h (0 Bft) NO 44 0 min 0,000 mm 0,0 UV-I 0 W/m 15,1 C 16,4 C 0,0 km/h (0 Bft) 0,00 %
21.07.2015 04:55 16,3 C 92 % 1014,0 hPa 0,0 l/m 0,0 km/h (0 Bft) NO 47 0 min 0,000 mm 0,0 UV-I 0 W/m 15,0 C 16,3 C 0,0 km/h (0 Bft) 0,00 %
21.07.2015 05:00 16,3 C 92 % 1014,0 hPa 0,0 l/m 0,0 km/h (0 Bft) N-NO 26 0 min 0,000 mm 0,0 UV-I 0 W/m 15,0 C 16,3 C 0,0 km/h (0 Bft) 0,00 %
21.07.2015 05:05 16,4 C 93 % 1014,1 hPa 0,0 l/m 0,0 km/h (0 Bft) NO 36 0 min 0,000 mm 0,0 UV-I 0 W/m 15,3 C 16,4 C 0,0 km/h (0 Bft) 0,00 %
21.07.2015 05:10 16,5 C 93 % 1014,0 hPa 0,0 l/m 0,0 km/h (0 Bft) NO 39 0 min 0,000 mm 0,0 UV-I 0 W/m 15,4 C 16,5 C 0,0 km/h (0 Bft) 0,00 %
21.07.2015 05:15 16,5 C 93 % 1013,9 hPa 0,0 l/m 0,0 km/h (0 Bft) NO 39 0 min 0,000 mm 0,0 UV-I 0 W/m 15,4 C 16,5 C 0,0 km/h (0 Bft) 0,00 %
21.07.2015 05:20 16,5 C 92 % 1014,0 hPa 0,0 l/m 0,0 km/h (0 Bft) NO 39 0 min 0,000 mm 0,0 UV-I 0 W/m 15,2 C 16,5 C 0,0 km/h (0 Bft) 0,00 %
21.07.2015 05:25 16,5 C 92 % 1013,8 hPa 0,0 l/m 0,0 km/h (0 Bft) NO 36 0 min 0,000 mm 0,0 UV-I 0 W/m 15,2 C 16,5 C 0,0 km/h (0 Bft) 0,00 %
21.07.2015 05:30 16,4 C 92 % 1014,1 hPa 0,0 l/m 0,0 km/h (0 Bft) N-NO 18 0 min 0,000 mm 0,0 UV-I 1 W/m 15,1 C 16,4 C 0,0 km/h (0 Bft) 0,00 %
21.07.2015 05:35 16,4 C 92 % 1014,1 hPa 0,0 l/m 0,0 km/h (0 Bft) N-NO 32 0 min 0,000 mm 0,0 UV-I 4 W/m 15,1 C 16,4 C 0,0 km/h (0 Bft) 0,00 %
21.07.2015 05:40 16,3 C 92 % 1014,0 hPa 0,0 l/m 0,0 km/h (0 Bft) N-NO 33 0 min 0,000 mm 0,0 UV-I 8 W/m 15,0 C 16,3 C 0,0 km/h (0 Bft) 0,00 %
21.07.2015 05:45 16,2 C 92 % 1014,1 hPa 0,0 l/m 0,0 km/h (0 Bft) NO 38 0 min 0,000 mm 0,0 UV-I 11 W/m 14,9 C 16,2 C 0,0 km/h (0 Bft) 0,00 %
21.07.2015 05:50 16,2 C 92 % 1014,0 hPa 0,0 l/m 0,0 km/h (0 Bft) N-NO 31 0 min 0,000 mm 0,0 UV-I 19 W/m 14,9 C 16,2 C 0,0 km/h (0 Bft) 0,00 %
21.07.2015 05:55 16,2 C 92 % 1014,2 hPa 0,0 l/m 0,0 km/h (0 Bft) NO 35 0 min 0,000 mm 0,0 UV-I 23 W/m 14,9 C 16,2 C 0,0 km/h (0 Bft) 0,00 %
21.07.2015 06:00 16,2 C 92 % 1013,9 hPa 0,0 l/m 0,0 km/h (0 Bft) NO 36 0 min 0,000 mm 0,0 UV-I 30 W/m 14,9 C 16,2 C 0,0 km/h (0 Bft) 0,00 %
21.07.2015 06:05 16,3 C 93 % 1013,6 hPa 0,0 l/m 0,0 km/h (0 Bft) NO 40 5 min 0,000 mm 0,0 UV-I 49 W/m 15,2 C 16,3 C 0,0 km/h (0 Bft) 0,00 %
21.07.2015 06:10 16,5 C 94 % 1013,6 hPa 0,0 l/m 0,0 km/h (0 Bft) NO 42 5 min 0,000 mm 0,0 UV-I 134 W/m 15,5 C 16,5 C 0,0 km/h (0 Bft) 0,00 %
21.07.2015 06:15 17,1 C 93 % 1013,4 hPa 0,0 l/m 0,0 km/h (0 Bft) NO 40 5 min 0,000 mm 0,0 UV-I 177 W/m 16,0 C 17,1 C 0,0 km/h (0 Bft) 0,00 %
21.07.2015 06:20 17,9 C 92 % 1013,2 hPa 0,0 l/m 0,0 km/h (0 Bft) NO 37 5 min 0,000 mm 0,0 UV-I 222 W/m 16,6 C 17,9 C 0,0 km/h (0 Bft) 0,00 %
21.07.2015 06:25 18,7 C 88 % 1013,3 hPa 0,0 l/m 0,0 km/h (0 Bft) NO 46 5 min 0,000 mm 0,0 UV-I 241 W/m 16,7 C 18,7 C 0,0 km/h (0 Bft) 0,00 %
21.07.2015 06:30 19,5 C 82 % 1013,1 hPa 0,0 l/m 0,0 km/h (0 Bft) N-NO 26 5 min 0,000 mm 0,0 UV-I 259 W/m 16,3 C 19,5 C 0,0 km/h (0 Bft) 0,00 %
21.07.2015 06:35 20,2 C 79 % 1013,0 hPa 0,0 l/m 0,0 km/h (0 Bft) N-NO 28 5 min 0,000 mm 0,0 UV-I 281 W/m 16,4 C 20,2 C 0,0 km/h (0 Bft) 0,00 %
21.07.2015 06:40 20,8 C 74 % 1013,3 hPa 0,0 l/m 0,0 km/h (0 Bft) NO 36 5 min 0,000 mm 1,0 UV-I 303 W/m 16,0 C 20,8 C 0,0 km/h (0 Bft) 0,00 %
21.07.2015 06:45 21,3 C 72 % 1013,2 hPa 0,0 l/m 0,0 km/h (0 Bft) NO 41 5 min 0,000 mm 1,0 UV-I 323 W/m 16,0 C 21,3 C 0,0 km/h (0 Bft) 0,00 %
21.07.2015 06:50 21,8 C 71 % 1013,2 hPa 0,0 l/m 0,0 km/h (0 Bft) NO 45 5 min 0,000 mm 1,0 UV-I 343 W/m 16,3 C 21,8 C 0,0 km/h (0 Bft) 0,00 %
21.07.2015 06:55 22,5 C 68 % 1013,2 hPa 0,0 l/m 0,0 km/h (0 Bft) NO 45 5 min 0,000 mm 1,0 UV-I 355 W/m 16,3 C 22,5 C 0,0 km/h (0 Bft) 0,00 %
21.07.2015 07:00 23,1 C 67 % 1012,9 hPa 0,0 l/m 0,0 km/h (0 Bft) NO 48 5 min 0,000 mm 1,0 UV-I 365 W/m 16,6 C 23,1 C 0,0 km/h (0 Bft) 0,00 %
21.07.2015 07:05 23,6 C 66 % 1012,6 hPa 0,0 l/m 0,0 km/h (0 Bft) NO 44 5 min 0,000 mm 1,0 UV-I 373 W/m 16,9 C 23,6 C 0,0 km/h (0 Bft) 0,00 %
21.07.2015 07:10 23,9 C 65 % 1012,6 hPa 0,0 l/m 0,0 km/h (0 Bft) N 3 5 min 0,000 mm 1,0 UV-I 378 W/m 16,9 C 23,9 C 0,0 km/h (0 Bft) 0,00 %
21.07.2015 07:15 24,1 C 63 % 1012,6 hPa 0,0 l/m 0,0 km/h (0 Bft) N-NO 29 5 min 0,000 mm 1,0 UV-I 382 W/m 16,6 C 24,1 C 0,0 km/h (0 Bft) 0,00 %
21.07.2015 07:20 24,2 C 64 % 1012,6 hPa 0,0 l/m 0,0 km/h (0 Bft) NO 34 5 min 0,000 mm 1,0 UV-I 386 W/m 16,9 C 24,2 C 0,0 km/h (0 Bft) 0,00 %
21.07.2015 07:25 24,1 C 64 % 1012,7 hPa 0,0 l/m 0,0 km/h (0 Bft) N 354 5 min 0,000 mm 1,0 UV-I 390 W/m 16,9 C 24,1 C 0,0 km/h (0 Bft) 0,00 %
21.07.2015 07:30 24,0 C 64 % 1012,6 hPa 0,0 l/m 0,0 km/h (0 Bft) N 351 5 min 0,000 mm 1,0 UV-I 397 W/m 16,8 C 24,0 C 0,0 km/h (0 Bft) 0,00 %
21.07.2015 07:35 24,1 C 63 % 1013,3 hPa 0,0 l/m 0,0 km/h (0 Bft) N-NO 22 5 min 0,000 mm 1,0 UV-I 402 W/m 16,6 C 24,1 C 0,0 km/h (0 Bft) 0,00 %
21.07.2015 07:40 24,4 C 61 % 1013,3 hPa 0,0 l/m 0,0 km/h (0 Bft) N-NO 29 5 min 0,000 mm 1,0 UV-I 406 W/m 16,4 C 24,4 C 0,0 km/h (0 Bft) 0,00 %
21.07.2015 07:45 25,0 C 59 % 1013,2 hPa 0,0 l/m 0,0 km/h (0 Bft) NO 48 5 min 0,000 mm 1,0 UV-I 410 W/m 16,4 C 25,0 C 0,0 km/h (0 Bft) 0,00 %
21.07.2015 07:50 25,6 C 58 % 1013,3 hPa 0,0 l/m 0,0 km/h (0 Bft) NO 44 5 min 0,000 mm 1,0 UV-I 413 W/m 16,7 C 25,6 C 0,0 km/h (0 Bft) 0,00 %
21.07.2015 07:55 26,0 C 57 % 1013,2 hPa 0,0 l/m 0,0 km/h (0 Bft) N-NO 13 5 min 0,000 mm 1,0 UV-I 421 W/m 16,8 C 26,0 C 0,0 km/h (0 Bft) 0,00 %
21.07.2015 08:00 26,3 C 55 % 1013,0 hPa 0,0 l/m 0,0 km/h (0 Bft) N-NO 29 5 min 0,000 mm 1,0 UV-I 421 W/m 16,5 C 26,3 C 0,0 km/h (0 Bft) 0,00 %
21.07.2015 08:05 26,6 C 55 % 1013,1 hPa 0,0 l/m 0,0 km/h (0 Bft) NO 36 5 min 0,000 mm 1,0 UV-I 428 W/m 16,8 C 26,6 C 0,0 km/h (0 Bft) 0,00 %
21.07.2015 08:10 26,9 C 53 % 1013,2 hPa 0,0 l/m 0,0 km/h (0 Bft) NO 45 5 min 0,000 mm 1,0 UV-I 418 W/m 16,5 C 26,9 C 0,0 km/h (0 Bft) 0,00 %
21.07.2015 08:15 27,1 C 52 % 1013,1 hPa 0,0 l/m 0,0 km/h (0 Bft) NO 37 5 min 0,000 mm 1,0 UV-I 437 W/m 16,4 C 27,1 C 0,0 km/h (0 Bft) 0,00 %
21.07.2015 08:20 27,3 C 52 % 1013,1 hPa 0,0 l/m 0,0 km/h (0 Bft) NO 53 5 min 0,000 mm 1,0 UV-I 444 W/m 16,6 C 27,3 C 0,0 km/h (0 Bft) 0,00 %
21.07.2015 08:25 27,5 C 52 % 1013,2 hPa 0,0 l/m 0,0 km/h (0 Bft) O-NO 59 5 min 0,000 mm 1,0 UV-I 453 W/m 16,7 C 27,5 C 0,0 km/h (0 Bft) 0,00 %
21.07.2015 08:30 27,7 C 52 % 1013,1 hPa 0,0 l/m 4,3 km/h (1 Bft) O-SO 108 5 min 0,000 mm 1,0 UV-I 464 W/m 16,9 C 27,7 C 7,9 km/h (2 Bft) 0,00 %
21.07.2015 08:35 27,6 C 52 % 1013,0 hPa 0,0 l/m 0,0 km/h (0 Bft) NO 51 5 min 0,000 mm 1,0 UV-I 475 W/m 16,8 C 27,6 C 0,0 km/h (0 Bft) 0,00 %
21.07.2015 08:40 27,5 C 51 % 1012,8 hPa 0,0 l/m 0,0 km/h (0 Bft) N-NO 17 5 min 0,000 mm 2,0 UV-I 444 W/m 16,4 C 27,5 C 0,0 km/h (0 Bft) 0,00 %
21.07.2015 08:45 27,8 C 53 % 1012,9 hPa 0,0 l/m 0,0 km/h (0 Bft) N-NO 30 5 min 0,000 mm 2,0 UV-I 491 W/m 17,3 C 27,8 C 0,0 km/h (0 Bft) 0,00 %
21.07.2015 08:50 28,0 C 52 % 1012,9 hPa 0,0 l/m 0,0 km/h (0 Bft) N-NO 24 5 min 0,000 mm 2,0 UV-I 503 W/m 17,2 C 28,0 C 0,0 km/h (0 Bft) 0,00 %
21.07.2015 08:55 27,8 C 52 % 1012,9 hPa 0,0 l/m 0,0 km/h (0 Bft) N-NO 31 5 min 0,000 mm 2,0 UV-I 508 W/m 17,0 C 27,8 C 0,0 km/h (0 Bft) 0,00 %
21.07.2015 09:00 27,7 C 52 % 1012,8 hPa 0,0 l/m 0,0 km/h (0 Bft) N-NO 27 5 min 0,000 mm 2,0 UV-I 486 W/m 16,9 C 27,7 C 0,0 km/h (0 Bft) 0,00 %
21.07.2015 09:05 27,5 C 52 % 1013,0 hPa 0,0 l/m 0,4 km/h (0 Bft) O-NO 70 5 min 0,000 mm 2,0 UV-I 528 W/m 16,7 C 27,5 C 4,0 km/h (1 Bft) 0,00 %
21.07.2015 09:10 27,5 C 49 % 1013,0 hPa 0,0 l/m 1,4 km/h (1 Bft) O 80 5 min 0,000 mm 2,0 UV-I 537 W/m 15,8 C 27,5 C 4,0 km/h (1 Bft) 0,00 %
21.07.2015 09:15 28,1 C 48 % 1012,7 hPa 0,0 l/m 0,0 km/h (0 Bft) O-NO 57 5 min 0,000 mm 2,0 UV-I 551 W/m 16,0 C 28,1 C 0,0 km/h (0 Bft) 0,00 %
21.07.2015 09:20 28,7 C 47 % 1012,7 hPa 0,0 l/m 0,0 km/h (0 Bft) N-NO 31 5 min 0,000 mm 2,0 UV-I 564 W/m 16,3 C 28,7 C 0,0 km/h (0 Bft) 0,00 %
21.07.2015 09:25 29,0 C 49 % 1012,8 hPa 0,0 l/m 0,0 km/h (0 Bft) NO 35 5 min 0,000 mm 2,0 UV-I 574 W/m 17,2 C 29,0 C 0,0 km/h (0 Bft) 0,00 %
21.07.2015 09:30 29,1 C 50 % 1012,8 hPa 0,0 l/m 0,0 km/h (0 Bft) N-NW 343 5 min 0,000 mm 2,0 UV-I 588 W/m 17,6 C 29,1 C 0,0 km/h (0 Bft) 0,00 %
21.07.2015 09:35 29,1 C 48 % 1012,8 hPa 0,0 l/m 0,0 km/h (0 Bft) O-NO 57 5 min 0,000 mm 2,0 UV-I 597 W/m 16,9 C 29,1 C 0,0 km/h (0 Bft) 0,00 %
21.07.2015 09:40 29,2 C 46 % 1012,8 hPa 0,0 l/m 0,0 km/h (0 Bft) NW 308 5 min 0,000 mm 2,0 UV-I 612 W/m 16,4 C 29,2 C 0,0 km/h (0 Bft) 0,00 %
21.07.2015 09:45 29,5 C 49 % 1012,8 hPa 0,0 l/m 0,0 km/h (0 Bft) NO 49 5 min 0,000 mm 2,0 UV-I 627 W/m 17,6 C 29,5 C 0,0 km/h (0 Bft) 0,00 %
21.07.2015 09:50 29,8 C 45 % 1012,8 hPa 0,0 l/m 0,0 km/h (0 Bft) NO 45 5 min 0,000 mm 2,0 UV-I 636 W/m 16,6 C 29,8 C 0,0 km/h (0 Bft) 0,00 %
21.07.2015 09:55 29,9 C 45 % 1012,6 hPa 0,0 l/m 0,0 km/h (0 Bft) O 98 5 min 0,000 mm 3,0 UV-I 647 W/m 16,7 C 29,9 C 0,0 km/h (0 Bft) 0,00 %
21.07.2015 10:00 30,1 C 47 % 1012,6 hPa 0,0 l/m 0,0 km/h (0 Bft) NO 54 5 min 0,000 mm 3,0 UV-I 655 W/m 17,5 C 30,1 C 0,0 km/h (0 Bft) 0,00 %
21.07.2015 10:05 30,3 C 43 % 1012,5 hPa 0,0 l/m 0,0 km/h (0 Bft) NO 56 5 min 0,000 mm 3,0 UV-I 674 W/m 16,3 C 30,3 C 0,0 km/h (0 Bft) 0,00 %
21.07.2015 10:10 30,7 C 41 % 1012,4 hPa 0,0 l/m 0,0 km/h (0 Bft) NO 41 5 min 0,000 mm 3,0 UV-I 682 W/m 15,9 C 30,7 C 0,0 km/h (0 Bft) 0,00 %
21.07.2015 10:15 31,2 C 41 % 1012,4 hPa 0,0 l/m 0,0 km/h (0 Bft) NO 45 5 min 0,000 mm 3,0 UV-I 702 W/m 16,4 C 31,2 C 0,0 km/h (0 Bft) 0,00 %
21.07.2015 10:20 31,5 C 42 % 1012,3 hPa 0,0 l/m 1,8 km/h (1 Bft) O 79 5 min 0,000 mm 3,0 UV-I 713 W/m 17,0 C 31,5 C 4,0 km/h (1 Bft) 0,00 %
21.07.2015 10:25 31,5 C 42 % 1012,1 hPa 0,0 l/m 0,0 km/h (0 Bft) NO 54 5 min 0,000 mm 3,0 UV-I 722 W/m 17,0 C 31,5 C 0,0 km/h (0 Bft) 0,00 %
21.07.2015 10:30 31,3 C 42 % 1012,2 hPa 0,0 l/m 0,0 km/h (0 Bft) NO 41 5 min 0,000 mm 3,0 UV-I 727 W/m 16,8 C 31,3 C 0,0 km/h (0 Bft) 0,00 %
21.07.2015 10:35 31,3 C 42 % 1012,2 hPa 0,0 l/m 0,4 km/h (0 Bft) N-NO 24 5 min 0,000 mm 3,0 UV-I 745 W/m 16,8 C 31,3 C 4,0 km/h (1 Bft) 0,00 %
21.07.2015 10:40 31,0 C 45 % 1012,4 hPa 0,0 l/m 0,4 km/h (0 Bft) N-NO 16 5 min 0,000 mm 3,0 UV-I 752 W/m 17,6 C 31,0 C 4,0 km/h (1 Bft) 0,00 %
21.07.2015 10:45 30,9 C 41 % 1012,3 hPa 0,0 l/m 0,0 km/h (0 Bft) NO 49 5 min 0,000 mm 3,0 UV-I 764 W/m 16,1 C 30,9 C 0,0 km/h (0 Bft) 0,00 %
21.07.2015 10:50 31,0 C 41 % 1012,4 hPa 0,0 l/m 5,8 km/h (2 Bft) W 264 5 min 0,000 mm 4,0 UV-I 769 W/m 16,2 C 31,0 C 7,9 km/h (2 Bft) 0,00 %
21.07.2015 10:55 31,2 C 41 % 1012,2 hPa 0,0 l/m 0,4 km/h (0 Bft) N-NO 21 5 min 0,000 mm 4,0 UV-I 768 W/m 16,4 C 31,2 C 4,0 km/h (1 Bft) 0,00 %
21.07.2015 11:00 31,4 C 40 % 1012,0 hPa 0,0 l/m 0,0 km/h (0 Bft) O 87 5 min 0,000 mm 4,0 UV-I 776 W/m 16,1 C 31,4 C 0,0 km/h (0 Bft) 0,00 %
21.07.2015 11:05 31,8 C 41 % 1012,2 hPa 0,0 l/m 3,2 km/h (1 Bft) N 351 5 min 0,000 mm 4,0 UV-I 775 W/m 16,9 C 31,8 C 4,0 km/h (1 Bft) 0,00 %
21.07.2015 11:10 32,1 C 42 % 1012,1 hPa 0,0 l/m 2,2 km/h (1 Bft) N-NW 338 5 min 0,000 mm 4,0 UV-I 808 W/m 17,5 C 32,1 C 4,0 km/h (1 Bft) 0,00 %
21.07.2015 11:15 31,9 C 40 % 1012,1 hPa 0,0 l/m 0,4 km/h (0 Bft) O-NO 58 5 min 0,000 mm 4,0 UV-I 817 W/m 16,6 C 31,9 C 4,0 km/h (1 Bft) 0,00 %
21.07.2015 11:20 31,7 C 40 % 1012,1 hPa 0,0 l/m 0,0 km/h (0 Bft) N-NO 27 5 min 0,000 mm 4,0 UV-I 806 W/m 16,4 C 31,7 C 0,0 km/h (0 Bft) 0,00 %
21.07.2015 11:25 31,7 C 42 % 1012,1 hPa 0,0 l/m 0,0 km/h (0 Bft) NO 44 5 min 0,000 mm 5,0 UV-I 802 W/m 17,2 C 31,7 C 0,0 km/h (0 Bft) 0,00 %
21.07.2015 11:30 31,9 C 39 % 1012,0 hPa 0,0 l/m 1,4 km/h (1 Bft) W-NW 297 5 min 0,000 mm 5,0 UV-I 838 W/m 16,2 C 31,9 C 4,0 km/h (1 Bft) 0,00 %
21.07.2015 11:35 31,8 C 39 % 1012,0 hPa 0,0 l/m 0,0 km/h (0 Bft) N 352 5 min 0,000 mm 5,0 UV-I 861 W/m 16,1 C 31,8 C 0,0 km/h (0 Bft) 0,00 %
21.07.2015 11:40 31,6 C 38 % 1012,0 hPa 0,0 l/m 0,0 km/h (0 Bft) N-NO 22 5 min 0,000 mm 5,0 UV-I 877 W/m 15,5 C 31,6 C 0,0 km/h (0 Bft) 0,00 %
21.07.2015 11:45 31,7 C 39 % 1011,9 hPa 0,0 l/m 0,0 km/h (0 Bft) O-NO 65 5 min 0,000 mm 5,0 UV-I 857 W/m 16,0 C 31,7 C 0,0 km/h (0 Bft) 0,00 %
21.07.2015 11:50 31,9 C 38 % 1011,8 hPa 0,0 l/m 0,0 km/h (0 Bft) NO 47 5 min 0,000 mm 5,0 UV-I 884 W/m 15,8 C 31,9 C 0,0 km/h (0 Bft) 0,00 %
21.07.2015 11:55 32,2 C 38 % 1011,8 hPa 0,0 l/m 0,4 km/h (0 Bft) N-NO 26 5 min 0,000 mm 5,0 UV-I 907 W/m 16,0 C 32,2 C 4,0 km/h (1 Bft) 0,00 %
21.07.2015 12:00 32,6 C 36 % 1011,8 hPa 0,0 l/m 1,8 km/h (1 Bft) O-SO 120 5 min 0,000 mm 5,0 UV-I 881 W/m 15,6 C 32,6 C 4,0 km/h (1 Bft) 0,00 %
21.07.2015 12:05 32,5 C 41 % 1011,7 hPa 0,0 l/m 1,4 km/h (1 Bft) NW 314 5 min 0,000 mm 5,0 UV-I 914 W/m 17,5 C 32,5 C 4,0 km/h (1 Bft) 0,00 %
21.07.2015 12:10 32,2 C 38 % 1011,8 hPa 0,0 l/m 0,0 km/h (0 Bft) N-NO 23 5 min 0,000 mm 5,0 UV-I 919 W/m 16,0 C 32,2 C 0,0 km/h (0 Bft) 0,00 %
21.07.2015 12:15 32,3 C 38 % 1011,9 hPa 0,0 l/m 0,0 km/h (0 Bft) N-NW 335 5 min 0,000 mm 5,0 UV-I 944 W/m 16,1 C 32,3 C 0,0 km/h (0 Bft) 0,00 %
21.07.2015 12:20 32,3 C 37 % 1011,9 hPa 0,0 l/m 0,0 km/h (0 Bft) NO 35 5 min 0,000 mm 5,0 UV-I 962 W/m 15,7 C 32,3 C 0,0 km/h (0 Bft) 0,00 %
21.07.2015 12:25 32,4 C 37 % 1011,6 hPa 0,0 l/m 0,0 km/h (0 Bft) N-NO 32 5 min 0,000 mm 5,0 UV-I 966 W/m 15,8 C 32,4 C 0,0 km/h (0 Bft) 0,00 %
21.07.2015 12:30 32,4 C 39 % 1011,8 hPa 0,0 l/m 0,0 km/h (0 Bft) NO 37 5 min 0,000 mm 6,0 UV-I 887 W/m 16,6 C 32,4 C 0,0 km/h (0 Bft) 0,00 %
21.07.2015 12:35 32,4 C 40 % 1011,7 hPa 0,0 l/m 0,0 km/h (0 Bft) N-NO 20 0 min 0,000 mm 6,0 UV-I 273 W/m 17,0 C 32,4 C 0,0 km/h (0 Bft) 0,00 %
21.07.2015 12:40 32,4 C 34 % 1011,6 hPa 0,0 l/m 0,0 km/h (0 Bft) N 351 5 min 0,000 mm 6,0 UV-I 952 W/m 14,5 C 32,4 C 0,0 km/h (0 Bft) 0,00 %
21.07.2015 12:45 32,6 C 37 % 1011,8 hPa 0,0 l/m 0,0 km/h (0 Bft) N-NO 32 5 min 0,000 mm 2,0 UV-I 987 W/m 16,0 C 32,6 C 0,0 km/h (0 Bft) 0,00 %
21.07.2015 12:50 32,8 C 37 % 1011,5 hPa 0,0 l/m 0,0 km/h (0 Bft) N-NO 14 5 min 0,000 mm 2,0 UV-I 995 W/m 16,2 C 32,8 C 0,0 km/h (0 Bft) 0,00 %
21.07.2015 12:55 32,5 C 38 % 1011,5 hPa 0,0 l/m 0,0 km/h (0 Bft) N-NO 21 5 min 0,000 mm 5,0 UV-I 1006 W/m 16,3 C 32,5 C 0,0 km/h (0 Bft) 0,00 %
21.07.2015 13:00 32,0 C 38 % 1011,7 hPa 0,0 l/m 1,8 km/h (1 Bft) N 350 5 min 0,000 mm 6,0 UV-I 1047 W/m 15,9 C 32,0 C 4,0 km/h (1 Bft) 0,00 %
21.07.2015 13:05 31,9 C 36 % 1011,6 hPa 0,0 l/m 2,9 km/h (1 Bft) W-NW 290 5 min 0,000 mm 6,0 UV-I 1080 W/m 14,9 C 31,9 C 4,0 km/h (1 Bft) 0,00 %
21.07.2015 13:10 32,3 C 35 % 1011,5 hPa 0,0 l/m 4,0 km/h (1 Bft) W-NW 289 5 min 0,000 mm 6,0 UV-I 528 W/m 14,9 C 32,3 C 7,9 km/h (2 Bft) 0,00 %
21.07.2015 13:15 32,7 C 34 % 1011,5 hPa 0,0 l/m 1,4 km/h (1 Bft) O-NO 62 0 min 0,000 mm 5,0 UV-I 378 W/m 14,8 C 32,7 C 4,0 km/h (1 Bft) 0,00 %
21.07.2015 13:20 32,7 C 36 % 1011,5 hPa 0,0 l/m 9,4 km/h (2 Bft) W-NW 300 5 min 0,000 mm 5,0 UV-I 1050 W/m 15,6 C 32,7 C 11,9 km/h (2 Bft) 0,00 %
21.07.2015 13:25 32,9 C 36 % 1011,4 hPa 0,0 l/m 0,4 km/h (0 Bft) N 356 5 min 0,000 mm 5,0 UV-I 1080 W/m 15,8 C 32,9 C 4,0 km/h (1 Bft) 0,00 %
21.07.2015 13:30 33,2 C 36 % 1011,1 hPa 0,0 l/m 0,0 km/h (0 Bft) N-NO 26 5 min 0,000 mm 2,0 UV-I 1098 W/m 16,1 C 33,2 C 0,0 km/h (0 Bft) 0,00 %
21.07.2015 13:35 33,1 C 36 % 1011,5 hPa 0,0 l/m 0,4 km/h (0 Bft) N 352 5 min 0,000 mm 2,0 UV-I 1098 W/m 16,0 C 33,1 C 4,0 km/h (1 Bft) 0,00 %
21.07.2015 13:40 32,7 C 39 % 1011,3 hPa 0,0 l/m 1,8 km/h (1 Bft) NO 35 5 min 0,000 mm 5,0 UV-I 1073 W/m 16,9 C 32,7 C 4,0 km/h (1 Bft) 0,00 %
21.07.2015 13:45 32,6 C 35 % 1011,2 hPa 0,0 l/m 0,0 km/h (0 Bft) NO 43 5 min 0,000 mm 5,0 UV-I 1114 W/m 15,1 C 32,6 C 0,0 km/h (0 Bft) 0,00 %
21.07.2015 13:50 33,1 C 34 % 1011,3 hPa 0,0 l/m 1,4 km/h (1 Bft) N-NW 328 5 min 0,000 mm 5,0 UV-I 1053 W/m 15,1 C 33,1 C 4,0 km/h (1 Bft) 0,00 %
21.07.2015 13:55 33,4 C 35 % 1011,1 hPa 0,0 l/m 0,4 km/h (0 Bft) N-NO 27 0 min 0,000 mm 5,0 UV-I 236 W/m 15,8 C 33,4 C 4,0 km/h (1 Bft) 0,00 %
21.07.2015 14:00 33,4 C 35 % 1011,2 hPa 0,0 l/m 0,0 km/h (0 Bft) N-NW 347 0 min 0,000 mm 5,0 UV-I 311 W/m 15,8 C 33,4 C 0,0 km/h (0 Bft) 0,00 %
21.07.2015 14:05 33,5 C 35 % 1011,1 hPa 0,0 l/m 4,0 km/h (1 Bft) W-SW 256 5 min 0,000 mm 5,0 UV-I 987 W/m 15,9 C 33,5 C 4,0 km/h (1 Bft) 0,00 %
21.07.2015 14:10 33,6 C 35 % 1011,0 hPa 0,0 l/m 0,0 km/h (0 Bft) N-NO 19 5 min 0,000 mm 2,0 UV-I 975 W/m 16,0 C 33,6 C 0,0 km/h (0 Bft) 0,00 %
21.07.2015 14:15 33,6 C 36 % 1010,9 hPa 0,0 l/m 0,0 km/h (0 Bft) O-NO 62 5 min 0,000 mm 2,0 UV-I 998 W/m 16,4 C 33,6 C 0,0 km/h (0 Bft) 0,00 %
21.07.2015 14:20 32,9 C 39 % 1011,1 hPa 0,0 l/m 2,9 km/h (1 Bft) NW 325 5 min 0,000 mm 2,0 UV-I 1011 W/m 17,1 C 32,9 C 4,0 km/h (1 Bft) 0,00 %
21.07.2015 14:25 32,1 C 39 % 1011,2 hPa 0,0 l/m 0,0 km/h (0 Bft) NO 52 5 min 0,000 mm 4,0 UV-I 1024 W/m 16,4 C 32,1 C 0,0 km/h (0 Bft) 0,00 %
21.07.2015 14:30 31,8 C 37 % 1011,2 hPa 0,0 l/m 0,7 km/h (0 Bft) NO 37 5 min 0,000 mm 5,0 UV-I 968 W/m 15,3 C 31,8 C 4,0 km/h (1 Bft) 0,00 %
21.07.2015 14:35 32,2 C 36 % 1011,1 hPa 0,0 l/m 5,8 km/h (2 Bft) W-NW 284 5 min 0,000 mm 5,0 UV-I 985 W/m 15,2 C 32,2 C 7,9 km/h (2 Bft) 0,00 %
21.07.2015 14:40 32,7 C 37 % 1010,9 hPa 0,0 l/m 0,0 km/h (0 Bft) NO 42 5 min 0,000 mm 4,0 UV-I 1013 W/m 16,1 C 32,7 C 0,0 km/h (0 Bft) 0,00 %
21.07.2015 14:45 33,2 C 35 % 1010,9 hPa 0,0 l/m 3,2 km/h (1 Bft) SW 226 5 min 0,000 mm 4,0 UV-I 985 W/m 15,6 C 33,2 C 7,9 km/h (2 Bft) 0,00 %
21.07.2015 14:50 33,7 C 32 % 1010,8 hPa 0,0 l/m 0,4 km/h (0 Bft) W-NW 288 5 min 0,000 mm 4,0 UV-I 982 W/m 14,7 C 33,7 C 4,0 km/h (1 Bft) 0,00 %
21.07.2015 14:55 34,1 C 34 % 1010,7 hPa 0,0 l/m 1,4 km/h (1 Bft) N-NW 338 5 min 0,000 mm 4,0 UV-I 985 W/m 16,0 C 34,1 C 4,0 km/h (1 Bft) 0,00 %
21.07.2015 15:00 33,9 C 34 % 1010,8 hPa 0,0 l/m 0,0 km/h (0 Bft) NO 47 5 min 0,000 mm 4,0 UV-I 991 W/m 15,8 C 33,9 C 0,0 km/h (0 Bft) 0,00 %
21.07.2015 15:05 33,5 C 34 % 1010,6 hPa 0,0 l/m 1,4 km/h (1 Bft) N 352 5 min 0,000 mm 4,0 UV-I 996 W/m 15,4 C 33,5 C 4,0 km/h (1 Bft) 0,00 %
21.07.2015 15:10 33,6 C 36 % 1010,7 hPa 0,0 l/m 0,0 km/h (0 Bft) N-NO 17 5 min 0,000 mm 4,0 UV-I 1008 W/m 16,4 C 33,6 C 0,0 km/h (0 Bft) 0,00 %
21.07.2015 15:15 33,8 C 33 % 1010,5 hPa 0,0 l/m 2,2 km/h (1 Bft) N 7 5 min 0,000 mm 4,0 UV-I 1002 W/m 15,2 C 33,8 C 4,0 km/h (1 Bft) 0,00 %
21.07.2015 15:20 33,9 C 34 % 1010,4 hPa 0,0 l/m 0,0 km/h (0 Bft) N 353 5 min 0,000 mm 4,0 UV-I 1002 W/m 15,8 C 33,9 C 0,0 km/h (0 Bft) 0,00 %
21.07.2015 15:25 33,8 C 34 % 1010,3 hPa 0,0 l/m 0,0 km/h (0 Bft) NO 45 5 min 0,000 mm 4,0 UV-I 1023 W/m 15,7 C 33,8 C 0,0 km/h (0 Bft) 0,00 %
21.07.2015 15:30 33,8 C 31 % 1010,4 hPa 0,0 l/m 0,0 km/h (0 Bft) NO 39 5 min 0,000 mm 4,0 UV-I 1023 W/m 14,3 C 33,8 C 0,0 km/h (0 Bft) 0,00 %
21.07.2015 15:35 34,0 C 31 % 1010,4 hPa 0,0 l/m 0,4 km/h (0 Bft) N 351 5 min 0,000 mm 4,0 UV-I 1058 W/m 14,4 C 34,0 C 4,0 km/h (1 Bft) 0,00 %
21.07.2015 15:40 34,2 C 32 % 1010,4 hPa 0,0 l/m 2,9 km/h (1 Bft) N 5 5 min 0,000 mm 4,0 UV-I 1098 W/m 15,1 C 34,2 C 4,0 km/h (1 Bft) 0,00 %
21.07.2015 15:45 34,2 C 31 % 1010,4 hPa 0,0 l/m 0,0 km/h (0 Bft) NO 41 5 min 0,000 mm 3,0 UV-I 1082 W/m 14,6 C 34,2 C 0,0 km/h (0 Bft) 0,00 %
21.07.2015 15:50 34,2 C 33 % 1010,2 hPa 0,0 l/m 0,7 km/h (0 Bft) NW 316 5 min 0,000 mm 3,0 UV-I 1025 W/m 15,6 C 34,2 C 4,0 km/h (1 Bft) 0,00 %
21.07.2015 15:55 34,3 C 32 % 1010,3 hPa 0,0 l/m 0,0 km/h (0 Bft) NO 55 5 min 0,000 mm 3,0 UV-I 1004 W/m 15,2 C 34,3 C 0,0 km/h (0 Bft) 0,00 %
21.07.2015 16:00 34,4 C 32 % 1010,3 hPa 0,0 l/m 0,0 km/h (0 Bft) NO 36 5 min 0,000 mm 3,0 UV-I 1012 W/m 15,3 C 34,4 C 0,0 km/h (0 Bft) 0,00 %
21.07.2015 16:05 34,6 C 32 % 1010,2 hPa 0,0 l/m 0,0 km/h (0 Bft) N-NO 26 5 min 0,000 mm 2,0 UV-I 991 W/m 15,5 C 34,6 C 0,0 km/h (0 Bft) 0,00 %
21.07.2015 16:10 34,5 C 33 % 1010,0 hPa 0,0 l/m 0,0 km/h (0 Bft) NO 50 5 min 0,000 mm 3,0 UV-I 993 W/m 15,8 C 34,5 C 0,0 km/h (0 Bft) 0,00 %
21.07.2015 16:15 34,2 C 33 % 1010,1 hPa 0,0 l/m 0,7 km/h (0 Bft) N-NO 24 5 min 0,000 mm 3,0 UV-I 962 W/m 15,6 C 34,2 C 4,0 km/h (1 Bft) 0,00 %
21.07.2015 16:20 33,8 C 32 % 1010,2 hPa 0,0 l/m 3,2 km/h (1 Bft) NW 326 5 min 0,000 mm 3,0 UV-I 931 W/m 14,8 C 33,8 C 7,9 km/h (2 Bft) 0,00 %
21.07.2015 16:25 34,0 C 31 % 1010,2 hPa 0,0 l/m 6,8 km/h (2 Bft) W-NW 301 5 min 0,000 mm 3,0 UV-I 947 W/m 14,4 C 34,0 C 7,9 km/h (2 Bft) 0,00 %
21.07.2015 16:30 34,2 C 32 % 1009,9 hPa 0,0 l/m 0,7 km/h (0 Bft) NW 323 5 min 0,000 mm 3,0 UV-I 921 W/m 15,1 C 34,2 C 4,0 km/h (1 Bft) 0,00 %
21.07.2015 16:35 34,2 C 31 % 1010,2 hPa 0,0 l/m 0,4 km/h (0 Bft) N-NO 24 5 min 0,000 mm 3,0 UV-I 925 W/m 14,6 C 34,2 C 4,0 km/h (1 Bft) 0,00 %
21.07.2015 16:40 34,5 C 30 % 1010,0 hPa 0,0 l/m 5,8 km/h (2 Bft) N-NW 342 5 min 0,000 mm 3,0 UV-I 939 W/m 14,4 C 34,5 C 7,9 km/h (2 Bft) 0,00 %
21.07.2015 16:45 34,6 C 30 % 1010,0 hPa 0,0 l/m 2,2 km/h (1 Bft) NW 325 0 min 0,000 mm 2,0 UV-I 196 W/m 14,5 C 34,6 C 4,0 km/h (1 Bft) 0,00 %
21.07.2015 16:50 34,4 C 31 % 1009,8 hPa 0,0 l/m 0,0 km/h (0 Bft) O 80 0 min 0,000 mm 2,0 UV-I 184 W/m 14,8 C 34,4 C 0,0 km/h (0 Bft) 0,00 %
21.07.2015 16:55 34,1 C 32 % 1009,9 hPa 0,0 l/m 6,5 km/h (2 Bft) W-SW 257 5 min 0,000 mm 2,0 UV-I 369 W/m 15,0 C 34,1 C 7,9 km/h (2 Bft) 0,00 %
21.07.2015 17:00 33,7 C 33 % 1010,0 hPa 0,0 l/m 5,8 km/h (2 Bft) W 276 5 min 0,000 mm 2,0 UV-I 815 W/m 15,2 C 33,7 C 7,9 km/h (2 Bft) 0,00 %
21.07.2015 17:05 33,4 C 32 % 1010,1 hPa 0,0 l/m 4,3 km/h (1 Bft) W-SW 238 5 min 0,000 mm 2,0 UV-I 861 W/m 14,4 C 33,4 C 7,9 km/h (2 Bft) 0,00 %
21.07.2015 17:10 33,4 C 33 % 1010,1 hPa 0,0 l/m 4,0 km/h (1 Bft) W-NW 297 5 min 0,000 mm 1,0 UV-I 735 W/m 14,9 C 33,4 C 7,9 km/h (2 Bft) 0,00 %
21.07.2015 17:15 33,4 C 34 % 1009,9 hPa 0,0 l/m 0,0 km/h (0 Bft) NO 36 5 min 0,000 mm 1,0 UV-I 803 W/m 15,4 C 33,4 C 0,0 km/h (0 Bft) 0,00 %
21.07.2015 17:20 33,0 C 35 % 1010,0 hPa 0,0 l/m 4,3 km/h (1 Bft) W 269 5 min 0,000 mm 1,0 UV-I 808 W/m 15,5 C 33,0 C 7,9 km/h (2 Bft) 0,00 %
21.07.2015 17:25 32,3 C 35 % 1010,2 hPa 0,0 l/m 0,0 km/h (0 Bft) O-NO 60 5 min 0,000 mm 1,0 UV-I 804 W/m 14,9 C 32,3 C 0,0 km/h (0 Bft) 0,00 %
21.07.2015 17:30 32,0 C 35 % 1010,3 hPa 0,0 l/m 0,0 km/h (0 Bft) NO 35 5 min 0,000 mm 1,0 UV-I 786 W/m 14,6 C 32,0 C 0,0 km/h (0 Bft) 0,00 %
21.07.2015 17:35 32,2 C 39 % 1010,0 hPa 0,0 l/m 0,0 km/h (0 Bft) N-NO 30 5 min 0,000 mm 1,0 UV-I 755 W/m 16,5 C 32,2 C 0,0 km/h (0 Bft) 0,00 %
21.07.2015 17:40 32,5 C 37 % 1009,8 hPa 0,0 l/m 0,0 km/h (0 Bft) W-SW 256 5 min 0,000 mm 1,0 UV-I 745 W/m 15,9 C 32,5 C 0,0 km/h (0 Bft) 0,00 %
21.07.2015 17:45 33,0 C 34 % 1009,8 hPa 0,0 l/m 0,0 km/h (0 Bft) NO 48 5 min 0,000 mm 1,0 UV-I 738 W/m 15,0 C 33,0 C 0,0 km/h (0 Bft) 0,00 %
21.07.2015 17:50 33,4 C 32 % 1009,8 hPa 0,0 l/m 0,0 km/h (0 Bft) NO 38 5 min 0,000 mm 1,0 UV-I 723 W/m 14,4 C 33,4 C 0,0 km/h (0 Bft) 0,00 %
21.07.2015 17:55 33,8 C 34 % 1009,5 hPa 0,0 l/m 1,4 km/h (1 Bft) W-SW 256 5 min 0,000 mm 1,0 UV-I 715 W/m 15,7 C 33,8 C 4,0 km/h (1 Bft) 0,00 %
21.07.2015 18:00 33,9 C 31 % 1009,7 hPa 0,0 l/m 5,4 km/h (1 Bft) W-SW 256 5 min 0,000 mm 1,0 UV-I 691 W/m 14,4 C 33,9 C 7,9 km/h (2 Bft) 0,00 %
21.07.2015 18:05 34,0 C 32 % 1009,8 hPa 0,0 l/m 5,4 km/h (1 Bft) N-NW 335 5 min 0,000 mm 1,0 UV-I 646 W/m 14,9 C 34,0 C 7,9 km/h (2 Bft) 0,00 %
21.07.2015 18:10 34,0 C 31 % 1009,6 hPa 0,0 l/m 0,0 km/h (0 Bft) NO 46 5 min 0,000 mm 1,0 UV-I 633 W/m 14,4 C 34,0 C 0,0 km/h (0 Bft) 0,00 %
21.07.2015 18:15 34,0 C 32 % 1009,6 hPa 0,0 l/m 0,0 km/h (0 Bft) NO 39 5 min 0,000 mm 1,0 UV-I 588 W/m 14,9 C 34,0 C 0,0 km/h (0 Bft) 0,00 %
21.07.2015 18:20 34,0 C 31 % 1009,5 hPa 0,0 l/m 0,4 km/h (0 Bft) N-NW 347 5 min 0,000 mm 1,0 UV-I 602 W/m 14,4 C 34,0 C 4,0 km/h (1 Bft) 0,00 %
21.07.2015 18:25 33,9 C 33 % 1009,6 hPa 0,0 l/m 4,7 km/h (1 Bft) W 279 5 min 0,000 mm 1,0 UV-I 579 W/m 15,3 C 33,9 C 7,9 km/h (2 Bft) 0,00 %
21.07.2015 18:30 33,8 C 33 % 1009,7 hPa 0,0 l/m 2,2 km/h (1 Bft) W-NW 297 5 min 0,000 mm 1,0 UV-I 567 W/m 15,2 C 33,8 C 4,0 km/h (1 Bft) 0,00 %
21.07.2015 18:35 33,7 C 34 % 1009,6 hPa 0,0 l/m 0,0 km/h (0 Bft) NO 44 5 min 0,000 mm 1,0 UV-I 544 W/m 15,6 C 33,7 C 0,0 km/h (0 Bft) 0,00 %
21.07.2015 18:40 33,9 C 32 % 1009,6 hPa 0,0 l/m 0,0 km/h (0 Bft) O-SO 120 5 min 0,000 mm 1,0 UV-I 512 W/m 14,8 C 33,9 C 0,0 km/h (0 Bft) 0,00 %
21.07.2015 18:45 34,0 C 31 % 1009,6 hPa 0,0 l/m 0,0 km/h (0 Bft) SW 227 5 min 0,000 mm 1,0 UV-I 474 W/m 14,4 C 34,0 C 0,0 km/h (0 Bft) 0,00 %
21.07.2015 18:50 34,0 C 32 % 1009,5 hPa 0,0 l/m 0,0 km/h (0 Bft) N-NO 27 5 min 0,000 mm 1,0 UV-I 446 W/m 14,9 C 34,0 C 0,0 km/h (0 Bft) 0,00 %
21.07.2015 18:55 33,8 C 32 % 1009,7 hPa 0,0 l/m 0,0 km/h (0 Bft) N-NO 32 5 min 0,000 mm 1,0 UV-I 412 W/m 14,8 C 33,8 C 0,0 km/h (0 Bft) 0,00 %
21.07.2015 19:00 33,6 C 33 % 1009,6 hPa 0,0 l/m 0,0 km/h (0 Bft) W-NW 290 5 min 0,000 mm 1,0 UV-I 380 W/m 15,1 C 33,6 C 0,0 km/h (0 Bft) 0,00 %
21.07.2015 19:05 33,7 C 33 % 1009,5 hPa 0,0 l/m 0,0 km/h (0 Bft) NO 51 5 min 0,000 mm 1,0 UV-I 341 W/m 15,2 C 33,7 C 0,0 km/h (0 Bft) 0,00 %
21.07.2015 19:10 33,9 C 33 % 1009,6 hPa 0,0 l/m 0,0 km/h (0 Bft) N-NO 18 5 min 0,000 mm 1,0 UV-I 268 W/m 15,3 C 33,9 C 0,0 km/h (0 Bft) 0,00 %
21.07.2015 19:15 33,9 C 32 % 1009,6 hPa 0,0 l/m 0,0 km/h (0 Bft) NO 40 5 min 0,000 mm 1,0 UV-I 229 W/m 14,8 C 33,9 C 0,0 km/h (0 Bft) 0,00 %
21.07.2015 19:20 33,9 C 33 % 1009,7 hPa 0,0 l/m 0,0 km/h (0 Bft) N-NW 345 5 min 0,000 mm 1,0 UV-I 197 W/m 15,3 C 33,9 C 0,0 km/h (0 Bft) 0,00 %
21.07.2015 19:25 34,0 C 35 % 1009,4 hPa 0,0 l/m 0,0 km/h (0 Bft) N-NO 23 0 min 0,000 mm 1,0 UV-I 89 W/m 16,3 C 34,0 C 0,0 km/h (0 Bft) 0,00 %
21.07.2015 19:30 34,0 C 33 % 1009,5 hPa 0,0 l/m 0,0 km/h (0 Bft) NO 51 0 min 0,000 mm 1,0 UV-I 55 W/m 15,4 C 34,0 C 0,0 km/h (0 Bft) 0,00 %
21.07.2015 19:35 33,9 C 33 % 1009,5 hPa 0,0 l/m 0,0 km/h (0 Bft) NO 48 0 min 0,000 mm 1,0 UV-I 95 W/m 15,3 C 33,9 C 0,0 km/h (0 Bft) 0,00 %
21.07.2015 19:40 33,8 C 33 % 1009,4 hPa 0,0 l/m 0,0 km/h (0 Bft) NO 54 0 min 0,000 mm 0,0 UV-I 33 W/m 15,2 C 33,8 C 0,0 km/h (0 Bft) 0,00 %
21.07.2015 19:45 33,7 C 36 % 1009,6 hPa 0,0 l/m 0,0 km/h (0 Bft) NO 39 0 min 0,000 mm 0,0 UV-I 25 W/m 16,5 C 33,7 C 0,0 km/h (0 Bft) 0,00 %
21.07.2015 19:50 33,4 C 35 % 1009,7 hPa 0,0 l/m 0,0 km/h (0 Bft) NO 44 0 min 0,000 mm 0,0 UV-I 18 W/m 15,8 C 33,4 C 0,0 km/h (0 Bft) 0,00 %
21.07.2015 19:55 33,1 C 35 % 1009,7 hPa 0,0 l/m 0,0 km/h (0 Bft) NO 43 0 min 0,000 mm 0,0 UV-I 8 W/m 15,6 C 33,1 C 0,0 km/h (0 Bft) 0,00 %
21.07.2015 20:00 32,8 C 37 % 1009,7 hPa 0,0 l/m 0,0 km/h (0 Bft) NO 51 0 min 0,000 mm 0,0 UV-I 3 W/m 16,2 C 32,8 C 0,0 km/h (0 Bft) 0,00 %
21.07.2015 20:05 32,6 C 36 % 1009,8 hPa 0,0 l/m 0,0 km/h (0 Bft) NO 36 0 min 0,000 mm 0,0 UV-I 2 W/m 15,6 C 32,6 C 0,0 km/h (0 Bft) 0,00 %
21.07.2015 20:10 32,3 C 36 % 1009,9 hPa 0,0 l/m 0,0 km/h (0 Bft) NO 49 0 min 0,000 mm 0,0 UV-I 5 W/m 15,3 C 32,3 C 0,0 km/h (0 Bft) 0,00 %
21.07.2015 20:15 31,9 C 37 % 1010,0 hPa 0,0 l/m 0,0 km/h (0 Bft) NO 46 0 min 0,000 mm 0,0 UV-I 4 W/m 15,4 C 31,9 C 0,0 km/h (0 Bft) 0,00 %
21.07.2015 20:20 31,3 C 38 % 1010,1 hPa 0,0 l/m 0,0 km/h (0 Bft) O-NO 63 0 min 0,000 mm 0,0 UV-I 0 W/m 15,3 C 31,3 C 0,0 km/h (0 Bft) 0,00 %
21.07.2015 20:25 30,7 C 40 % 1010,1 hPa 0,0 l/m 0,0 km/h (0 Bft) NO 49 0 min 0,000 mm 0,0 UV-I 0 W/m 15,5 C 30,7 C 0,0 km/h (0 Bft) 0,00 %
21.07.2015 20:30 30,2 C 40 % 1010,2 hPa 0,0 l/m 0,0 km/h (0 Bft) NO 45 0 min 0,000 mm 0,0 UV-I 0 W/m 15,1 C 30,2 C 0,0 km/h (0 Bft) 0,00 %
21.07.2015 20:35 29,7 C 40 % 1010,4 hPa 0,0 l/m 0,0 km/h (0 Bft) NO 54 0 min 0,000 mm 0,0 UV-I 0 W/m 14,6 C 29,7 C 0,0 km/h (0 Bft) 0,00 %
21.07.2015 20:40 29,2 C 42 % 1010,3 hPa 0,0 l/m 0,0 km/h (0 Bft) NO 35 0 min 0,000 mm 0,0 UV-I 0 W/m 14,9 C 29,2 C 0,0 km/h (0 Bft) 0,00 %
21.07.2015 20:45 28,7 C 44 % 1010,4 hPa 0,0 l/m 0,0 km/h (0 Bft) NO 46 0 min 0,000 mm 0,0 UV-I 0 W/m 15,2 C 28,7 C 0,0 km/h (0 Bft) 0,00 %
21.07.2015 20:50 28,2 C 48 % 1010,8 hPa 0,0 l/m 0,0 km/h (0 Bft) NO 46 0 min 0,000 mm 0,0 UV-I 0 W/m 16,1 C 28,2 C 0,0 km/h (0 Bft) 0,00 %
21.07.2015 20:55 27,7 C 46 % 1010,7 hPa 0,0 l/m 0,0 km/h (0 Bft) O-NO 58 0 min 0,000 mm 0,0 UV-I 0 W/m 15,0 C 27,7 C 0,0 km/h (0 Bft) 0,00 %
21.07.2015 21:00 27,2 C 47 % 1010,8 hPa 0,0 l/m 0,0 km/h (0 Bft) NO 47 0 min 0,000 mm 0,0 UV-I 0 W/m 14,9 C 27,2 C 0,0 km/h (0 Bft) 0,00 %
21.07.2015 21:05 26,8 C 50 % 1010,9 hPa 0,0 l/m 0,0 km/h (0 Bft) NO 48 0 min 0,000 mm 0,0 UV-I 0 W/m 15,5 C 26,8 C 0,0 km/h (0 Bft) 0,00 %
21.07.2015 21:10 26,4 C 52 % 1011,3 hPa 0,0 l/m 0,0 km/h (0 Bft) NO 56 0 min 0,000 mm 0,0 UV-I 0 W/m 15,7 C 26,4 C 0,0 km/h (0 Bft) 0,00 %
21.07.2015 21:15 26,1 C 52 % 1011,2 hPa 0,0 l/m 0,0 km/h (0 Bft) N-NO 31 0 min 0,000 mm 0,0 UV-I 0 W/m 15,5 C 26,1 C 0,0 km/h (0 Bft) 0,00 %
21.07.2015 21:20 25,8 C 56 % 1011,2 hPa 0,0 l/m 0,0 km/h (0 Bft) NO 53 0 min 0,000 mm 0,0 UV-I 0 W/m 16,3 C 25,8 C 0,0 km/h (0 Bft) 0,00 %
21.07.2015 21:25 25,5 C 56 % 1011,6 hPa 0,0 l/m 0,0 km/h (0 Bft) NO 47 0 min 0,000 mm 0,0 UV-I 0 W/m 16,1 C 25,5 C 0,0 km/h (0 Bft) 0,00 %
21.07.2015 21:30 25,1 C 58 % 1011,7 hPa 0,0 l/m 0,0 km/h (0 Bft) NO 46 0 min 0,000 mm 0,0 UV-I 0 W/m 16,2 C 25,1 C 0,0 km/h (0 Bft) 0,00 %
21.07.2015 21:35 24,8 C 61 % 1011,6 hPa 0,0 l/m 0,0 km/h (0 Bft) O-NO 65 0 min 0,000 mm 0,0 UV-I 0 W/m 16,8 C 24,8 C 0,0 km/h (0 Bft) 0,00 %
21.07.2015 21:40 24,5 C 62 % 1011,6 hPa 0,0 l/m 0,0 km/h (0 Bft) NO 39 0 min 0,000 mm 0,0 UV-I 0 W/m 16,7 C 24,5 C 0,0 km/h (0 Bft) 0,00 %
21.07.2015 21:45 24,2 C 62 % 1011,7 hPa 0,0 l/m 0,0 km/h (0 Bft) NO 43 0 min 0,000 mm 0,0 UV-I 0 W/m 16,4 C 24,2 C 0,0 km/h (0 Bft) 0,00 %
21.07.2015 21:50 23,9 C 62 % 1011,7 hPa 0,0 l/m 0,0 km/h (0 Bft) NO 42 0 min 0,000 mm 0,0 UV-I 0 W/m 16,2 C 23,9 C 0,0 km/h (0 Bft) 0,00 %
21.07.2015 21:55 23,6 C 63 % 1011,9 hPa 0,0 l/m 0,0 km/h (0 Bft) NO 39 0 min 0,000 mm 0,0 UV-I 0 W/m 16,1 C 23,6 C 0,0 km/h (0 Bft) 0,00 %
21.07.2015 22:00 23,3 C 65 % 1012,1 hPa 0,0 l/m 0,0 km/h (0 Bft) NO 36 0 min 0,000 mm 0,0 UV-I 0 W/m 16,3 C 23,3 C 0,0 km/h (0 Bft) 0,00 %
21.07.2015 22:05 23,1 C 65 % 1012,0 hPa 0,0 l/m 0,0 km/h (0 Bft) NO 45 0 min 0,000 mm 0,0 UV-I 0 W/m 16,2 C 23,1 C 0,0 km/h (0 Bft) 0,00 %
21.07.2015 22:10 22,9 C 65 % 1012,1 hPa 0,0 l/m 0,0 km/h (0 Bft) NO 43 0 min 0,000 mm 0,0 UV-I 0 W/m 16,0 C 22,9 C 0,0 km/h (0 Bft) 0,00 %
21.07.2015 22:15 22,7 C 67 % 1012,2 hPa 0,0 l/m 0,0 km/h (0 Bft) NO 45 0 min 0,000 mm 0,0 UV-I 0 W/m 16,2 C 22,7 C 0,0 km/h (0 Bft) 0,00 %
21.07.2015 22:20 22,5 C 67 % 1012,1 hPa 0,0 l/m 0,0 km/h (0 Bft) NO 46 0 min 0,000 mm 0,0 UV-I 0 W/m 16,1 C 22,5 C 0,0 km/h (0 Bft) 0,00 %
21.07.2015 22:25 22,4 C 68 % 1012,3 hPa 0,0 l/m 0,0 km/h (0 Bft) NO 46 0 min 0,000 mm 0,0 UV-I 0 W/m 16,2 C 22,4 C 0,0 km/h (0 Bft) 0,00 %
21.07.2015 22:30 22,2 C 68 % 1012,3 hPa 0,0 l/m 0,0 km/h (0 Bft) NO 44 0 min 0,000 mm 0,0 UV-I 0 W/m 16,0 C 22,2 C 0,0 km/h (0 Bft) 0,00 %
21.07.2015 22:35 22,0 C 69 % 1012,5 hPa 0,0 l/m 0,0 km/h (0 Bft) NO 44 0 min 0,000 mm 0,0 UV-I 0 W/m 16,0 C 22,0 C 0,0 km/h (0 Bft) 0,00 %
21.07.2015 22:40 21,8 C 69 % 1012,4 hPa 0,0 l/m 0,0 km/h (0 Bft) NO 42 0 min 0,000 mm 0,0 UV-I 0 W/m 15,9 C 21,8 C 0,0 km/h (0 Bft) 0,00 %
21.07.2015 22:45 21,7 C 69 % 1012,5 hPa 0,0 l/m 0,0 km/h (0 Bft) NO 44 0 min 0,000 mm 0,0 UV-I 0 W/m 15,8 C 21,7 C 0,0 km/h (0 Bft) 0,00 %
21.07.2015 22:50 21,7 C 69 % 1012,6 hPa 0,0 l/m 0,0 km/h (0 Bft) NO 41 0 min 0,000 mm 0,0 UV-I 0 W/m 15,8 C 21,7 C 0,0 km/h (0 Bft) 0,00 %
21.07.2015 22:55 21,7 C 69 % 1012,7 hPa 0,0 l/m 0,0 km/h (0 Bft) NO 44 0 min 0,000 mm 0,0 UV-I 0 W/m 15,8 C 21,7 C 0,0 km/h (0 Bft) 0,00 %
21.07.2015 23:00 21,7 C 70 % 1012,7 hPa 0,0 l/m 0,0 km/h (0 Bft) NO 42 0 min 0,000 mm 0,0 UV-I 0 W/m 16,0 C 21,7 C 0,0 km/h (0 Bft) 0,00 %
21.07.2015 23:05 21,7 C 70 % 1012,7 hPa 0,0 l/m 0,0 km/h (0 Bft) NO 43 0 min 0,000 mm 0,0 UV-I 0 W/m 16,0 C 21,7 C 0,0 km/h (0 Bft) 0,00 %
21.07.2015 23:10 21,7 C 70 % 1012,6 hPa 0,0 l/m 0,0 km/h (0 Bft) NO 46 0 min 0,000 mm 0,0 UV-I 0 W/m 16,0 C 21,7 C 0,0 km/h (0 Bft) 0,00 %
21.07.2015 23:15 21,6 C 70 % 1012,7 hPa 0,0 l/m 0,0 km/h (0 Bft) NO 46 0 min 0,000 mm 0,0 UV-I 0 W/m 15,9 C 21,6 C 0,0 km/h (0 Bft) 0,00 %
21.07.2015 23:20 21,6 C 70 % 1012,7 hPa 0,0 l/m 0,0 km/h (0 Bft) NO 46 0 min 0,000 mm 0,0 UV-I 0 W/m 15,9 C 21,6 C 0,0 km/h (0 Bft) 0,00 %
21.07.2015 23:25 21,6 C 69 % 1012,7 hPa 0,0 l/m 0,0 km/h (0 Bft) NO 46 0 min 0,000 mm 0,0 UV-I 0 W/m 15,7 C 21,6 C 0,0 km/h (0 Bft) 0,00 %
21.07.2015 23:30 21,8 C 69 % 1012,8 hPa 0,0 l/m 0,0 km/h (0 Bft) N-NO 30 0 min 0,000 mm 0,0 UV-I 0 W/m 15,9 C 21,8 C 0,0 km/h (0 Bft) 0,00 %
21.07.2015 23:35 21,9 C 69 % 1012,6 hPa 0,0 l/m 0,0 km/h (0 Bft) NO 39 0 min 0,000 mm 0,0 UV-I 0 W/m 15,9 C 21,9 C 0,0 km/h (0 Bft) 0,00 %
21.07.2015 23:40 22,0 C 68 % 1012,9 hPa 0,0 l/m 0,0 km/h (0 Bft) NO 42 0 min 0,000 mm 0,0 UV-I 0 W/m 15,8 C 22,0 C 0,0 km/h (0 Bft) 0,00 %
21.07.2015 23:45 22,1 C 69 % 1012,7 hPa 0,0 l/m 0,0 km/h (0 Bft) NO 44 0 min 0,000 mm 0,0 UV-I 0 W/m 16,1 C 22,1 C 0,0 km/h (0 Bft) 0,00 %
21.07.2015 23:50 22,0 C 69 % 1012,7 hPa 0,0 l/m 0,0 km/h (0 Bft) NO 42 0 min 0,000 mm 0,0 UV-I 0 W/m 16,0 C 22,0 C 0,0 km/h (0 Bft) 0,00 %
21.07.2015 23:55 22,0 C 69 % 1012,7 hPa 0,0 l/m 0,0 km/h (0 Bft) NO 46 0 min 0,000 mm 0,0 UV-I 0 W/m 16,0 C 22,0 C 0,0 km/h (0 Bft) 0,00 %
_ Min-Zeit 05:45 16:40 19:25 - 00:00 - - - - - - 15:30 05:45 00:00 00:00
Minimum _ 16,2 C 30 % 1009,4 hPa - 0,0 km/h (0 Bft) - - - - - - 14,3 C 16,2 C 0,0 km/h (0 Bft) 0,00 %
_ Max-Zeit 16:05 06:10 05:55 00:00 13:20 - - 06:05 00:00 12:30 13:45 10:40 16:05 13:20 00:00
Maximum _ 34,6 C 94 % 1014,2 hPa 0,0 l/m 9,4 km/h
W-NW (2 Bft)
- - 5 min 0,000 mm 6,0 UV-I 1114 W/m 17,6 C 34,6 C 11,9 km/h
W-NW (2 Bft)
0,00 %
Durchschnitt _ 26,5 C 57 % 1012,0 hPa #0,0 l/m 0,5 km/h (0 Bft) W-NW - #12:50 h #0,000 mm 2,7 UV-I 622 W/m 15,9 C 26,5 C 1,0 km/h (0 Bft) 0,00 %